Skip Page Navigation
NASA JPL Caltech
NASA Logo - Jet Propulsion Laboratory + View the NASA Portal
+ Center for Near-Earth Object Studies
JPL Home Earth Solar System Stars & Galaxies Technology
JPL Solar System Dynamics
BODIES ORBITS EPHEMERIDES TOOLS PHYSICAL DATA DISCOVERY FAQ SITE MAP
JPL Small-Body Database Browser
Search: [ help ]  
183323 (2002 VV50)
Classification: Main-belt Asteroid          SPK-ID: 2183323
Ephemeris | Orbit Diagram | Orbital Elements | Mission Design | Physical Parameters | Discovery Circumstances | Close-Approach Data ]

[ show orbit diagram ]
Orbital Elements at Epoch 2459000.5 (2020-May-31.0) TDB
Reference: JPL 12 (heliocentric ecliptic J2000)
 Element Value Uncertainty (1-sigma)   Units 
e .1748421030794739 3.3735e-08  
a 2.446094671664452 1.4635e-08 au
q 2.018414334939144 8.5334e-08 au
i 4.24987820030889 4.6361e-06 deg
node 83.51907075896014 9.4161e-05 deg
peri 337.2194181543065 9.8684e-05 deg
M 199.0407736835881 3.0929e-05 deg
tp 2459625.272196448189
(2022-Feb-14.77219645)
0.00012385 TDB
period 1397.360038741779
3.83
1.2541e-05
3.434e-08
d
yr
n .257628664065815 2.3121e-09 deg/d
Q 2.87377500838976 1.7194e-08 au
  Orbit Determination Parameters
   # obs. used (total)      397  
   data-arc span      9929 days (27.18 yr)  
   first obs. used      1992-01-30  
   last obs. used      2019-04-07  
   planetary ephem.      DE431  
   SB-pert. ephem.      SB431-N16  
   condition code      0  
   norm. resid. RMS      .60085  
   source      ORB  
   producer      Otto Matic  
   solution date      2019-Jul-13 06:09:27  

Additional Information
 Earth MOID = 1.03208 au 
 Jupiter MOID = 2.44916 au 
 T_jup = 3.474 
[ show covariance matrix ]

Ephemeris | Orbit Diagram | Orbital Elements | Mission Design | Physical Parameters | Discovery Circumstances | Close-Approach Data ]

Physical Parameter Table
Parameter Symbol Value Units Sigma Reference Notes
absolute magnitude H 16.8   n/a MPO433199  

183323 (2002 VV50)          Discovered 2002-Nov-06 by LONEOS at Anderson Mesa
Reference: 20080420/Numbers.arcLast Updated: 2008-04-23

[ show close-approach data ]
Alternate Designations
 2002 VV50 = 1998 SD3 
Ephemeris | Orbit Diagram | Orbital Elements | Mission Design | Physical Parameters | Discovery Circumstances | Close-Approach Data ]
ABOUT SSD CREDITS/AWARDS PRIVACY/COPYRIGHT GLOSSARY LINKS
FirstGov 2020-Jul-14 14:28 UT
(server date/time)  
NASA Home Page
Site Manager:   Ryan S. Park
Webmaster  Alan B. Chamberlin